Date String (YYYY-MM-DD hh:mm:ss) UTC,Instrument flags,Ambient pressure (hPa),Sample flow (lpm),Bypass flow (lpm),Sample temperature (°C),Ambient temperature (°C),ASC tube jacket temperature (°C),LED temperature (°C),Box temperature (°C),Sample RH (%),Span deviation,Mass concentration (μg/m³),Mass concentration (μg/m³),Mass concentration (μg/m³)
DateTimeUTC,F1_M11,P_M11,Q1_M11,Q2_M11,T1_M11,T2_M11,T3_M11,T4_M11,T5_M11,U1_M11,ZSPAN_M11,X0_M11,X2_M11,X1_M11
2022-05-22 08:00:00,,0832.3,4.99,0.00,24.1,23.0,00.0,33.1,25.9,14.5,0000.0,0001.05,0000.04,0000.00
2022-05-22 08:01:00,,0832.4,5.01,0.00,24.1,23.0,00.0,33.1,25.9,14.6,0000.0,0000.76,0000.04,0000.00
2022-05-22 08:02:00,,0832.4,4.99,0.00,24.0,23.0,00.0,33.1,25.9,14.7,0000.0,0000.76,0000.04,0000.00
2022-05-22 08:03:00,,0832.3,5.01,0.00,24.0,23.0,00.0,33.1,25.9,15.0,0000.0,0000.76,0000.04,0000.00
2022-05-22 08:04:00,,0832.3,5.00,0.00,24.0,23.0,00.0,33.1,25.9,15.1,0000.0,0000.76,0000.04,0000.00
2022-05-22 08:05:00,,0832.3,5.00,0.00,24.0,23.0,00.0,33.1,25.9,15.0,0000.0,0000.76,0000.04,0000.00
2022-05-22 08:06:00,,0832.3,5.00,0.00,24.0,23.0,00.0,33.0,25.9,15.0,0000.0,0000.76,0000.04,0000.00
2022-05-22 08:07:00,,0832.3,5.01,0.00,24.0,23.0,00.0,33.0,25.9,15.0,0000.0,0000.15,0000.03,0000.00
2022-05-22 08:08:00,,0832.3,5.00,0.00,24.0,23.1,00.0,33.0,26.0,15.2,0000.0,0000.16,0000.05,0000.00
2022-05-22 08:09:00,,0832.2,4.99,0.00,24.0,23.1,00.0,33.0,26.0,15.1,0000.0,0000.12,0000.04,0000.00
2022-05-22 08:10:00,,0832.3,5.00,0.00,24.1,23.1,00.0,33.0,26.0,15.1,0000.0,0000.09,0000.02,0000.00
2022-05-22 08:11:00,,0832.3,4.99,0.00,24.1,23.2,00.0,33.0,26.0,15.5,0000.0,0000.13,0000.03,0000.00
2022-05-22 08:12:00,,0832.3,5.01,0.00,24.1,23.2,00.0,33.0,26.0,15.4,0000.0,0000.80,0000.05,0000.00
2022-05-22 08:13:00,,0832.3,5.00,0.00,24.1,23.2,00.0,33.0,26.0,15.4,0000.0,0000.80,0000.05,0000.00
2022-05-22 08:14:00,,0832.3,4.99,0.00,24.1,23.2,00.0,33.0,26.0,15.3,0000.0,0000.80,0000.05,0000.00
2022-05-22 08:15:00,,0832.2,5.01,0.00,24.1,23.2,00.0,33.0,26.1,15.2,0000.0,0000.80,0000.05,0000.00
2022-05-22 08:16:00,,0832.2,5.00,0.00,24.1,23.2,00.0,33.0,26.1,15.2,0000.0,0000.80,0000.05,0000.00
2022-05-22 08:17:00,,0832.2,5.00,0.00,24.1,23.3,00.0,33.0,26.1,15.2,0000.0,0000.80,0000.05,0000.00
2022-05-22 08:18:00,,0832.2,5.02,0.00,24.1,23.3,00.0,33.1,26.1,15.4,0000.0,0000.88,0000.07,0000.00
2022-05-22 08:19:00,,0832.1,5.00,0.00,24.2,23.3,00.0,33.1,26.1,15.7,0000.0,0000.84,0000.07,0000.00
2022-05-22 08:20:00,,0832.1,5.00,0.00,24.2,23.3,00.0,33.1,26.1,15.6,0000.0,0000.84,0000.07,0000.00
2022-05-22 08:21:00,,0832.1,5.00,0.00,24.2,23.3,00.0,33.1,26.1,15.6,0000.0,0000.82,0000.06,0000.00
2022-05-22 08:22:00,,0832.2,5.00,0.00,24.2,23.3,00.0,33.1,26.1,15.7,0000.0,0001.11,0000.05,0000.00
2022-05-22 08:23:00,,0832.2,5.01,0.00,24.2,23.3,00.0,33.1,26.1,15.7,0000.0,0002.91,0000.03,0000.00
2022-05-22 08:24:00,,0832.2,5.00,0.00,24.2,23.3,00.0,33.1,26.1,15.8,0000.0,0003.10,0000.05,0000.01
2022-05-22 08:25:00,,0832.2,5.01,0.00,24.2,23.3,00.0,33.1,26.2,16.2,0000.0,0003.10,0000.05,0000.01
2022-05-22 08:26:00,,0832.3,4.99,0.00,24.2,23.3,00.0,33.1,26.2,16.4,0000.0,0003.10,0000.06,0000.01
2022-05-22 08:27:00,,0832.3,5.00,0.00,24.2,23.3,00.0,33.1,26.1,16.6,0000.0,0003.10,0000.06,0000.01
2022-05-22 08:28:00,,0832.3,5.00,0.00,24.2,23.3,00.0,33.1,26.1,16.7,0000.0,0003.11,0000.06,0000.01
2022-05-22 08:29:00,,0832.3,5.00,0.00,24.2,23.3,00.0,33.1,26.1,16.7,0000.0,0003.05,0000.04,0000.01
2022-05-22 08:30:00,,0832.3,5.01,0.00,24.2,23.3,00.0,33.1,26.1,16.6,0000.0,0003.04,0000.03,0000.00
2022-05-22 08:31:00,,0832.3,4.99,0.00,24.2,23.2,00.0,33.1,26.1,16.5,0000.0,0003.04,0000.03,0000.00
2022-05-22 08:32:00,,0832.3,5.00,0.00,24.2,23.2,00.0,33.1,26.1,16.5,0000.0,0003.04,0000.03,0000.00
2022-05-22 08:33:00,,0832.3,5.01,0.00,24.2,23.2,00.0,33.1,26.1,16.6,0000.0,0002.79,0000.04,0000.00
2022-05-22 08:34:00,,0832.3,5.00,0.00,24.2,23.2,00.0,33.1,26.1,16.6,0000.0,0000.77,0000.04,0000.00
2022-05-22 08:35:00,,0832.3,4.99,0.00,24.1,23.2,00.0,33.1,26.0,16.5,0000.0,0001.21,0000.02,0000.00
2022-05-22 08:36:00,,0832.3,5.01,0.00,24.1,23.2,00.0,33.1,26.0,16.5,0000.0,0001.59,0000.02,0000.00
2022-05-22 08:37:00,,0832.3,4.99,0.00,24.1,23.2,00.0,33.1,26.0,16.5,0000.0,0001.59,0000.02,0000.00
2022-05-22 08:38:00,,0832.3,5.00,0.00,24.1,23.1,00.0,33.1,26.0,16.5,0000.0,0001.59,0000.02,0000.00
2022-05-22 08:39:00,,0832.3,5.00,0.00,24.1,23.1,00.0,33.1,26.0,16.5,0000.0,0001.58,0000.02,0000.00
2022-05-22 08:40:00,,0832.2,5.02,0.00,24.1,23.1,00.0,33.1,25.9,16.2,0000.0,0001.55,0000.01,0000.00
2022-05-22 08:41:00,,0832.1,4.99,0.00,24.1,23.0,00.0,33.1,25.9,15.9,0000.0,0001.57,0000.03,0000.00
2022-05-22 08:42:00,,0832.1,4.99,0.00,24.1,23.1,00.0,33.1,25.9,15.7,0000.0,0001.58,0000.03,0000.00
2022-05-22 08:43:00,,0832.1,5.01,0.00,24.1,23.1,00.0,33.1,25.9,15.6,0000.0,0001.59,0000.03,0000.00
2022-05-22 08:44:00,,0832.1,4.99,0.00,24.1,23.1,00.0,33.1,25.9,15.6,0000.0,0001.34,0000.04,0000.00
2022-05-22 08:45:00,,0832.1,5.00,0.00,24.0,23.0,00.0,33.1,25.9,15.9,0000.0,0000.96,0000.04,0000.00
2022-05-22 08:46:00,,0832.1,5.00,0.00,24.0,23.0,00.0,33.0,25.9,15.7,0000.0,0001.74,0000.04,0000.00
2022-05-22 08:47:00,,0832.1,5.01,0.00,24.0,23.0,00.0,33.0,25.7,15.5,0000.0,0001.48,0000.03,0000.00
2022-05-22 08:48:00,,0832.1,4.99,0.00,24.0,22.9,00.0,33.0,25.7,15.4,0000.0,0001.53,0000.05,0000.00
2022-05-22 08:49:00,,0832.1,5.00,0.00,23.9,22.9,00.0,33.0,25.7,15.4,0000.0,0001.53,0000.05,0000.01
2022-05-22 08:50:00,,0832.1,5.00,0.00,23.9,22.9,00.0,33.0,25.7,15.4,0000.0,0001.53,0000.05,0000.01
2022-05-22 08:51:00,,0832.1,5.00,0.00,23.9,22.9,00.0,33.0,25.7,15.4,0000.0,0001.53,0000.05,0000.01
2022-05-22 08:52:00,,0832.0,5.01,0.00,23.9,22.8,00.0,33.0,25.7,15.5,0000.0,0001.51,0000.03,0000.01
2022-05-22 08:53:00,,0832.0,5.00,0.00,23.9,22.8,00.0,32.9,25.7,15.4,0000.0,0001.51,0000.03,0000.01
2022-05-22 08:54:00,,0832.0,4.99,0.00,23.9,22.8,00.0,32.9,25.7,15.5,0000.0,0001.55,0000.06,0000.01
2022-05-22 08:55:00,,0831.9,5.01,0.00,23.9,22.9,00.0,32.9,25.7,15.6,0000.0,0001.53,0000.06,0000.01
2022-05-22 08:56:00,,0831.9,4.99,0.00,23.9,22.9,00.0,32.9,25.7,15.6,0000.0,0001.53,0000.06,0000.01
2022-05-22 08:57:00,,0831.9,5.01,0.00,23.9,22.9,00.0,32.9,25.7,15.6,0000.0,0000.29,0000.06,0000.01
2022-05-22 08:58:00,,0831.9,4.99,0.00,23.9,22.9,00.0,32.9,25.7,15.6,0000.0,0000.12,0000.06,0000.01
2022-05-22 08:59:00,,0832.0,5.00,0.00,23.9,22.9,00.0,32.9,25.8,15.6,0000.0,0000.08,0000.04,0000.00
